CST,Max TemperatureF,Mean TemperatureF,Min TemperatureF,Max Dew PointF,MeanDew PointF,Min DewpointF,Max Humidity, Mean Humidity, Min Humidity, Max Sea Level PressureIn, Mean Sea Level PressureIn, Min Sea Level PressureIn, Max VisibilityMiles, Mean VisibilityMiles, Min VisibilityMiles, Max Wind SpeedMPH, Mean Wind SpeedMPH, Max Gust SpeedMPH,PrecipitationIn, CloudCover, Events, WindDirDegrees
2013-11-1,63,53,44,49,44,39,100,78,43,29.94,29.81,29.70,10,10,10,18,6,24,0.01,2,Rain,265
2013-11-2,53,44,36,43,40,36,99,83,58,30.23,30.10,29.93,10,10,5,14,8,20,0.00,5,,293
2013-11-3,59,44,30,39,36,31,100,72,45,30.25,30.18,30.11,10,10,6,15,6,23,0.00,0,,148
2013-11-4,59,54,49,51,45,39,90,73,61,30.21,30.14,30.08,10,10,10,17,13,26,0.00,7,,168
2013-11-5,59,54,50,59,55,51,100,98,88,30.21,30.11,29.98,10,10,3,18,10,25,0.28,8,Rain,151
2013-11-6,59,47,35,60,49,34,100,98,81,30.34,30.06,29.90,10,8,1,18,12,31,0.65,8,Rain,267
2013-11-7,57,44,30,37,33,30,100,73,37,30.43,30.38,30.32,10,10,10,10,4,22,0.00,0,,281
2013-11-8,61,45,29,38,34,29,99,65,35,30.38,30.24,30.10,10,10,10,14,7,24,0.00,0,,170
2013-11-9,64,55,46,43,40,38,75,61,43,30.28,30.17,30.09,10,10,6,12,6,20,0.00,0,,241
2013-11-10,61,50,40,40,32,25,82,54,26,30.43,30.35,30.29,10,10,7,8,5,,0.00,0,,67
2013-11-11,63,48,32,52,41,32,100,82,54,30.49,30.30,30.17,10,9,4,21,9,29,0.03,7,Rain,339
2013-11-12,35,28,19,32,19,12,100,71,40,30.79,30.68,30.47,10,10,10,17,11,24,0.00,4,,350
2013-11-13,47,32,16,19,15,11,91,55,24,30.73,30.55,30.31,10,10,5,10,5,,0.00,0,,181
2013-11-14,55,42,28,26,19,13,68,41,20,30.30,30.17,30.05,10,10,10,12,7,17,0.00,1,,184
2013-11-15,53,48,43,49,38,27,95,70,47,30.06,29.98,29.90,10,10,10,14,8,25,0.00,6,Rain,170
2013-11-16,66,58,51,63,57,50,100,86,71,29.89,29.71,29.60,10,10,10,21,14,33,0.04,6,Rain,178
2013-11-17,75,63,49,65,46,16,94,58,18,30.03,29.67,29.49,10,10,10,21,13,38,0.00,1,,229
2013-11-18,56,48,36,37,29,24,76,52,30,30.32,30.23,30.04,10,10,5,13,6,17,0.00,0,,311
2013-11-19,56,44,32,31,26,17,90,56,22,30.33,30.25,30.14,10,10,8,15,6,,0.00,1,,132
2013-11-20,52,44,37,37,32,24,93,67,44,30.14,30.06,29.98,10,10,6,17,11,25,0.08,8,Rain,152
2013-11-21,53,50,46,52,48,35,100,93,51,30.24,30.12,30.03,10,7,1,12,6,20,0.63,8,Rain,184
2013-11-22,50,40,30,50,34,30,100,99,95,30.56,30.43,30.23,10,7,2,15,11,24,0.00,8,,333
2013-11-23,34,26,16,32,20,8,100,73,48,30.74,30.65,30.51,10,10,10,15,8,23,0.00,5,,347
2013-11-24,28,19,10,14,10,7,92,64,42,30.75,30.64,30.43,10,10,10,12,5,,0.00,2,,78
2013-11-25,35,32,28,26,20,10,75,63,45,30.39,30.26,30.17,10,10,4,9,6,,0.00,8,Snow,217
2013-11-26,41,32,22,30,24,11,89,70,55,30.32,30.19,30.11,10,10,10,18,7,29,0.00,4,,315
2013-11-27,30,23,16,14,11,9,79,62,40,30.43,30.36,30.31,10,10,10,12,7,17,0.00,0,,297
2013-11-28,48,34,21,26,20,12,71,54,40,30.50,30.35,30.26,10,10,10,9,6,18,0.00,0,,295
2013-11-29,53,39,25,32,27,22,86,66,40,30.56,30.46,30.37,10,10,10,12,6,,0.00,0,,125
2013-11-30,58,44,29,40,35,28,94,73,48,30.35,30.22,30.11,10,10,10,12,7,20,0.00,1,,186